Dewpoint
14 14 14 15 16 17 14 14 12 12 12 13 15 19 23 27 27 28 27 28 32 39 42 42 42 42 41 39 37 36 35 33 32 31 30 29 29 28 28 28 28 29 28 28
14 14 14 13 15 17 17 17 15 15 15 18 23 25 28 28 27 26 26 26 32 38 41 42 42 41 41 40 37 36 34 32 30 29 28 28 28 27 27 26 26 26 26 26
12 12 12 13 13 11 11 10 12 13 15 26 24 25 26 26 26 29 29 34 36 37 37 41 42 42 40 39 36 35 32 29 28 28 28 28 27 28 27 26 26 26 25 25
14 15 8 7 12 29 26 26 21 22 25 27 28 28 29 32 37 37 35 38 41 42 42 41 41 42 41 39 36 35 33 31 28 27 27 27 26 26 27 27 27 27 26 26
14 12 11 12 26 25 24 24 32 31 33 35 34 34 32 37 38 38 39 40 39 39 39 40 40 43 42 37 36 35 33 32 28 27 27 27 26 26 28 28 28 27 26 25
13 11 7 22 21 25 28 23 30 29 30 34 34 28 29 32 37 36 37 39 40 40 40 40 40 40 37 36 34 34 32 31 30 28 26 26 27 27 27 27 26 26 26 26
11 10 4 22 19 27 19 21 29 31 33 34 33 33 34 35 35 36 37 38 40 39 39 39 38 37 35 33 33 32 32 31 30 27 27 27 27 27 27 26 26 27 27 28
10 8 6 25 17 21 27 30 31 33 29 31 32 33 33 34 34 34 34 36 38 38 39 38 37 35 34 33 33 32 30 28 27 27 28 29 27 27 27 27 27 27 26 26
10 4 12 17 27 30 32 31 31 32 31 31 31 30 32 32 34 34 34 35 37 37 38 37 35 35 33 32 31 30 29 28 28 29 28 28 28 28 27 28 27 25 23 23
15 10 16 20 27 30 30 32 33 33 35 35 31 30 31 32 32 33 34 34 36 37 38 37 36 34 34 32 31 30 29 29 29 28 28 28 29 29 28 27 25 22 22 22
15 18 26 26 26 28 30 34 35 36 35 35 34 33 31 30 30 31 32 34 36 36 37 37 37 35 34 33 31 30 30 30 30 29 28 28 29 28 26 26 25 24 24 25
17 25 28 27 28 30 33 36 36 35 33 34 32 32 32 31 31 30 30 32 34 36 37 37 36 34 32 32 33 32 30 30 30 29 29 28 27 27 27 26 24 24 25 26
25 27 25 30 33 35 33 34 35 34 34 34 34 33 30 28 29 32 33 34 35 35 37 36 35 34 34 32 32 32 31 30 29 29 28 27 27 26 25 26 26 26 25 25
24 30 30 33 30 31 32 31 33 33 33 33 32 33 34 35 35 36 38 38 39 37 36 35 34 32 32 32 31 30 30 30 29 29 28 28 27 27 27 26 25 26 26 26
32 33 33 31 30 30 33 33 33 31 30 30 31 31 31 31 33 38 36 36 36 36 36 34 33 31 32 31 30 30 30 30 30 29 29 28 28 27 27 26 26 26 26 27
33 34 29 28 28 30 32 33 32 31 32 30 31 32 31 31 33 37 36 35 34 33 33 33 32 32 33 32 32 29 29 29 29 28 28 28 27 27 27 26 26 25 25 25
28 27 29 28 29 30 31 32 32 32 32 32 32 32 32 31 33 36 36 34 33 32 31 32 30 32 32 32 31 30 29 28 28 27 27 27 27 26 26 26 26 26 26 26
27 30 31 31 30 29 30 31 30 31 31 32 32 31 31 30 30 32 35 34 33 31 31 31 31 31 31 31 30 29 28 28 28 28 27 27 26 26 26 25 25 25 26 26
27 28 29 30 31 31 30 30 30 30 31 31 31 31 31 31 31 31 33 34 34 32 31 31 30 31 30 30 29 28 28 28 28 27 27 26 26 25 25 25 25 25 24 25
27 27 27 27 29 30 30 30 30 30 29 29 31 31 31 30 30 31 31 31 31 31 32 32 31 31 30 29 29 29 28 28 27 27 27 26 26 25 25 24 24 24 25 26
28 27 24 25 26 27 28 29 30 30 28 27 30 30 30 31 30 30 30 30 30 29 29 31 31 30 29 28 28 28 28 28 27 26 26 26 25 25 25 24 24 25 25 26
30 28 26 25 27 28 28 29 31 31 29 27 27 28 30 30 30 30 30 29 29 29 29 30 30 29 28 28 28 28 28 27 27 27 27 26 26 25 25 25 25 25 26 26
30 30 30 29 29 29 28 28 29 29 30 29 27 27 28 29 30 28 29 30 29 30 30 30 30 30 30 30 30 29 28 28 28 27 27 27 26 26 26 26 26 26 26 26
25 25 26 27 28 28 26 25 26 27 30 31 30 29 28 28 29 30 28 30 30 29 30 29 29 30 31 31 31 30 30 29 28 28 27 27 27 27 27 27 26 27 27 26
23 23 24 24 23 24 27 25 25 25 27 27 29 30 30 29 28 30 28 29 30 30 29 27 27 28 29 30 30 30 29 28 28 27 26 27 27 27 27 27 27 26 25 25
21 21 22 23 24 25 24 24 25 24 27 26 26 27 31 30 28 27 27 26 28 29 29 27 28 28 28 28 27 27 27 26 25 26 26 27 27 27 26 26 24 24 24 23
20 21 21 22 22 22 24 23 25 26 27 27 27 27 29 31 29 26 26 27 27 27 28 27 27 27 28 27 26 26 26 27 27 26 27 26 26 25 24 23 23 23 20 18
Wind_Speed
25 28 32 36 40 40 38 36 36 39 42 47 42 40 34 31 29 28 28 25 20 17 17 15 13 14 12 17 17 14 16 19 20 20 21 21 23 23 21 20 18 15 16 15
30 32 30 35 38 39 41 41 39 35 42 36 33 31 25 24 24 23 23 22 18 17 14 16 16 15 12 8 18 23 18 17 20 21 23 23 23 23 21 19 18 17 15 17
25 26 21 25 25 24 30 31 30 35 32 36 34 28 19 19 18 17 14 10 8 4 7 8 13 14 12 15 19 21 19 17 20 20 24 25 24 23 21 20 18 18 17 16
15 15 12 14 15 11 21 26 26 23 27 27 26 23 20 12 7 8 11 7 5 3 2 7 10 20 20 17 20 21 22 22 18 21 23 24 24 24 24 23 21 18 17 16
7 14 26 23 5 18 23 25 11 21 23 22 18 10 9 3 3 4 4 4 2 1 4 9 5 20 17 20 19 20 23 24 23 21 25 26 26 24 22 23 20 18 18 19
17 12 10 3 21 31 22 13 26 38 25 22 12 15 11 13 5 5 5 5 5 4 4 5 2 13 18 20 20 21 22 26 27 23 25 26 25 24 21 20 19 17 17 15
15 9 15 5 29 25 9 11 37 29 22 17 13 6 16 12 7 6 5 7 8 8 8 7 5 10 14 18 22 20 20 20 22 25 25 25 24 23 22 21 19 17 17 18
5 7 10 5 31 10 17 35 28 28 27 23 21 20 14 11 10 9 9 5 5 4 4 3 3 8 11 14 15 19 23 25 25 25 23 25 25 23 23 21 20 19 18 18
5 13 26 31 21 30 27 24 25 27 28 22 20 19 19 14 12 11 10 6 1 1 2 4 5 7 10 13 18 21 23 25 25 25 22 25 25 24 21 21 20 19 19 18
17 11 22 33 34 23 21 22 25 23 23 21 17 19 17 15 14 12 8 8 4 4 5 5 6 6 10 16 20 22 23 24 24 26 26 23 19 21 21 21 20 20 19 19
21 25 27 21 22 28 34 30 26 28 25 21 18 23 18 16 17 12 10 9 7 6 5 6 9 10 14 15 18 20 21 22 22 21 23 22 20 20 20 19 21 22 20 21
15 20 20 30 36 35 30 22 23 24 25 27 21 20 20 19 17 12 11 9 8 7 7 9 12 12 15 15 18 20 21 20 19 20 20 18 18 16 13 16 18 17 19 19
23 19 30 33 29 24 22 21 21 22 20 20 22 21 17 16 12 9 9 9 8 8 9 13 15 14 17 18 19 19 19 19 19 20 20 20 18 20 19 14 17 20 21 20
21 26 17 8 13 18 15 18 19 16 14 15 17 17 18 17 14 10 6 8 8 6 9 14 16 18 20 22 21 19 19 20 20 20 19 19 19 17 18 19 18 17 19 19
12 14 9 13 15 15 17 16 18 19 21 21 18 18 19 20 18 12 8 7 8 10 10 15 18 17 18 21 21 20 19 18 17 18 18 18 17 17 17 18 17 15 15 15
10 6 10 14 17 18 18 18 17 20 19 20 21 21 20 17 16 7 5 7 6 3 2 9 14 18 20 20 21 18 17 20 19 18 18 18 17 18 17 18 18 16 15 15
10 11 13 15 16 17 17 17 16 17 17 18 21 21 20 18 13 6 3 4 4 4 4 9 13 15 18 20 20 17 17 18 18 16 17 18 18 18 18 18 18 17 16 15
9 9 9 10 13 15 16 17 17 18 17 18 17 17 18 18 15 12 5 3 8 5 4 9 14 16 16 17 17 17 17 16 16 17 17 16 16 17 18 17 17 17 15 16
9 10 12 12 12 12 14 16 16 17 16 16 16 16 14 15 16 14 5 7 8 6 5 9 14 15 16 15 16 15 16 18 16 16 16 16 16 16 16 16 16 15 16 17
7 9 11 12 12 12 15 14 13 15 15 16 14 13 15 15 15 15 10 1 1 2 10 13 14 14 14 16 16 14 15 16 16 16 16 16 15 15 15 15 15 15 16 16
9 9 12 14 14 14 14 14 12 16 16 15 14 13 13 12 13 12 11 8 5 1 7 14 12 12 13 15 14 13 14 15 15 16 16 15 15 14 14 14 14 14 14 15
10 10 12 14 13 13 15 15 13 13 16 13 12 13 13 11 12 13 6 5 4 2 7 9 10 14 15 17 13 14 14 14 14 14 14 14 14 15 14 14 15 14 14 14
11 11 12 13 13 13 13 15 16 16 16 14 13 13 12 11 9 7 9 9 3 1 5 7 11 15 19 13 13 13 13 13 13 13 13 14 14 14 15 15 14 14 14 14
12 14 13 13 14 13 14 16 17 17 16 14 13 11 11 12 10 2 3 6 4 2 3 6 11 16 16 12 12 13 13 12 12 13 13 14 13 13 13 14 14 13 13 14
11 11 11 12 14 14 15 16 16 15 17 18 16 12 11 7 7 7 6 4 4 6 5 6 11 13 11 11 11 12 12 13 14 14 14 14 14 13 13 13 13 14 13 13
12 12 12 13 12 12 12 15 16 14 14 16 17 16 14 10 8 8 5 5 6 7 7 8 9 11 9 11 12 12 12 12 13 13 14 13 13 13 13 13 13 13 12 12
11 12 13 11 10 12 13 14 16 15 14 14 17 17 17 15 11 9 7 5 6 7 8 8 10 12 11 12 12 12 12 12 13 13 13 13 13 13 13 13 13 13 13 13
Wind_Direction
275 280 283 285 289 288 286 275 269 277 281 283 288 291 294 286 282 274 274 268 269 244 220 219 218 215 175 163 150 150 153 159 165 158 150 147 149 150 151 156 156 138 132 129
284 279 280 279 277 275 274 279 277 274 275 279 289 293 289 287 293 286 283 285 264 241 227 220 214 209 203 173 159 154 164 166 149 151 144 148 150 149 150 147 145 145 146 151
277 284 288 282 267 277 283 279 275 279 286 294 297 295 299 296 301 308 301 289 284 254 241 224 231 195 200 186 166 155 161 149 147 152 151 152 148 148 147 143 146 149 149 154
280 303 262 255 316 326 327 292 281 276 278 301 305 296 292 305 352 6 52 65 30 39 272 257 230 192 179 182 165 163 157 154 154 154 152 154 154 152 146 142 149 148 152 148
276 291 283 291 17 342 340 307 18 347 320 329 321 321 324 37 25 35 71 71 78 322 306 312 310 185 161 162 164 162 163 162 163 164 153 154 158 157 154 154 154 159 157 158
286 279 284 42 348 343 320 258 348 331 317 341 3 31 345 344 347 34 50 37 17 356 351 4 46 162 164 167 166 176 178 168 159 164 160 158 153 149 148 148 148 148 162 162
270 275 277 275 357 330 336 336 315 313 321 328 333 311 296 323 336 357 355 7 2 5 6 8 128 153 167 171 179 174 166 156 158 160 159 151 143 142 145 146 148 162 164 164
268 281 278 327 342 345 298 303 311 323 331 329 318 311 314 314 312 324 330 354 8 352 13 27 145 164 169 179 167 160 159 157 158 155 153 146 146 149 151 148 158 156 155 158
271 259 297 305 299 286 289 285 294 311 317 326 322 324 309 299 300 292 296 311 343 270 150 133 165 183 171 159 151 149 156 159 154 147 150 146 146 144 152 162 160 163 163 165
298 274 286 299 292 306 314 315 312 312 314 314 314 316 312 305 305 296 286 275 247 200 168 157 176 170 164 151 150 153 153 153 151 146 146 146 152 160 158 165 163 166 165 173
270 288 295 289 312 322 321 321 328 335 334 323 319 308 312 308 303 300 297 282 253 243 199 175 159 156 142 153 155 151 147 147 150 149 148 154 162 165 167 175 168 165 171 169
269 287 291 296 307 310 313 325 340 341 343 340 341 312 304 298 293 293 300 290 258 235 201 179 159 162 155 157 149 145 146 148 151 148 148 148 148 147 160 166 163 165 161 164
271 286 297 291 291 301 320 336 337 337 339 335 345 354 338 304 309 309 298 288 281 253 203 181 164 164 166 151 147 151 154 151 147 148 149 149 149 156 156 154 155 153 159 164
284 273 287 307 321 323 329 340 344 339 341 340 341 348 351 345 329 320 338 332 321 283 202 186 173 167 166 156 157 157 154 152 151 151 149 151 155 156 155 160 167 165 168 163
295 324 316 332 337 336 342 345 351 351 346 347 349 350 348 340 332 330 339 354 339 310 231 188 170 158 160 152 148 150 146 149 148 145 148 148 150 153 157 159 160 156 151 159
325 315 345 347 342 340 343 349 349 344 347 347 347 350 343 328 311 302 340 9 356 345 122 160 157 151 147 142 142 143 145 145 144 144 143 148 153 156 157 161 159 158 164 165
345 344 352 349 337 334 338 343 339 333 329 343 343 337 332 330 324 293 348 58 70 69 108 128 130 134 136 138 142 139 141 144 144 146 153 156 157 162 165 165 167 169 171 168
352 357 351 339 340 335 335 340 342 339 335 332 331 340 343 343 341 320 281 147 108 84 98 124 124 125 129 134 134 135 141 145 151 156 155 158 164 166 168 170 172 172 170 173
2 355 348 340 339 340 338 335 333 328 332 329 335 342 343 343 343 342 315 191 156 145 152 139 138 133 135 137 137 140 146 151 154 157 160 158 161 167 170 172 174 174 168 166
343 351 346 339 338 337 333 333 329 332 334 331 329 339 347 350 353 351 358 302 337 317 162 155 149 146 144 145 142 148 154 154 153 154 156 162 167 170 173 174 172 171 171 173
328 328 345 346 338 336 332 321 329 340 334 336 332 334 337 341 347 352 360 344 337 305 180 160 158 153 155 155 154 154 152 150 152 156 161 166 165 169 171 173 173 172 175 180
322 327 335 334 338 336 336 337 334 331 336 335 336 333 336 340 348 344 348 340 350 106 140 153 163 162 158 153 157 154 158 158 156 158 165 167 168 171 174 174 177 179 180 183
331 332 328 339 338 330 345 355 345 334 325 332 326 329 327 318 319 330 338 351 340 178 161 159 159 155 154 153 152 154 155 158 163 169 171 172 174 175 177 181 182 178 179 181
341 341 336 336 336 341 349 344 343 340 326 322 317 304 319 319 319 300 306 309 277 228 175 161 173 170 163 163 160 161 167 173 175 177 179 177 178 177 177 176 179 177 175 170
335 330 335 342 334 327 321 331 334 338 341 337 331 322 314 306 277 293 307 289 255 200 176 161 169 174 174 175 178 180 181 182 185 183 183 181 179 178 175 173 173 170 167 166
341 341 334 332 331 335 338 339 329 330 331 329 329 331 319 307 291 288 281 259 237 234 206 192 190 188 192 192 190 188 184 180 177 179 175 173 172 170 168 165 161 161 160 158
346 348 344 338 340 334 339 335 324 323 327 322 320 326 320 311 297 280 271 258 236 219 219 213 201 196 189 185 184 180 178 176 175 173 173 169 167 164 162 160 158 155 151 151